Weather in Feldkirch

Austria     47°14′28″N   9°36′06″E
temp.,
°C
wind,
m/s
gust,
m/s
humid.,
%
clouds,
%
prec.,
mm/h
press.,
hPa
HPBL,
m
28 july, wed
wed2823:00+15wsw119198 0.1 101611
02:00+14sse0194100 0.2 101611
05:00+14sse1197100 1.4 101626
08:00+14wnw1197100 2.3 101622
11:00+14nw2298100 3.3 1016201
14:00+14wnw0195100 11.4 1017181
17:00+15sse128946 3.4 1017380
20:00+16s11851 3.4 101728
29 july, thu
thu2923:00+12ssw2295100 0.0 101924
02:00+11s22940 0.0 101832
05:00+10s22930 0.0 101839
08:00+14s22783 0.0 1017139
11:00+21nne21560 0.0 10161055
14:00+23n335447 0.0 10141451
17:00+22n326590 0.1 10141173
20:00+18ene118847 0.2 101413
30 july, fri
fri3023:00+14s229577 0.1 101423
02:00+14s239798 4.3 101557
05:00+14s2396100 0.0 101356
08:00+16ssw129387 0.0 101378
11:00+23n11574 0.0 1012728
14:00+26nne2347100 0.0 10091552
17:00+17wsw1197100 15.1 101043
20:00+16e1196100 24.2 101349
31 july, sat
sat3123:00+14nnw1198100 1.2 101459
02:00+13nnw1299100 4.0 1015133
05:00+13nne0199100 1.9 101473
08:00+13nne1298100 2.1 1014141
11:00+13ene1193100 0.1 1015156
14:00+13se118782 0.1 1014171
17:00+16ene118164 0.3 1013503
20:00+15nne009189 0.6 101227
1 august, sun
sun123:00+13s2198100 2.1 101237
02:00+12wsw2298100 11.3 101146
05:00+12wnw1198100 18.3 101142
08:00+11sse1297100 23.8 101357
11:00+13sse128538 0.6 1013462
14:00+15nnw22799 2.1 1012693
17:00+16nnw22759 1.4 1012825
20:00+13nnw22925 2.4 101436